Location: Earls Croome
(52.0667°N, 2.2000°W)
Time: 10:46:40
(UTC+00:00)

COSMOS 2455 - Pass Details

Date: 25 February 2020
Orbit: 901 x 909 km, 67.2° (Epoch: 07 April)

Event Time Altitude Azimuth Distance (km) Brightness Sun altitude
Exits shadow 05:20:17 - 322° (NW) 3,243 5.4 -16.8°
Reaches altitude 10° 05:22:02 10° 325° (NW) 2,601 5.0 -16.5°
Maximum altitude 05:28:02 64° 47° (NE) 1,002 3.3 -15.6°
Drops below altitude 10° 05:34:01 10° 129° (SE) 2,591 5.9 -14.7°
Sets 05:36:32 0° 132° (SE) 3,529 6.6 -14.3°
